Content
SEND FEEDBACK

Daily
Averages
Monthly
Summary
Thailand

KHON KAEN, THAILAND


Home > Asia > Thailand
Elevation: 515 feet     Latitude: 16 20N     Longitude: 102 51E

WEATHER
 
SELECT A DAY
Number of Records: 65,435;   Date Range: 12/16/03 - 7/20/14
 
SHARE

PRINT THIS DATA

[ ← Previous Day ]
WEATHER ALMANAC - APRIL 1, 2013
[ Next Day → ]
[ °C ]   °F
Weather ElementAverageHighLow
Temperature88.8 °F98.6 °F (3:00 pm)77 °F (6:00 am)
Dewpoint73.1 °F75.2 °F (12:00 pm)70 °F (1:00 pm)
Humidity59.9 %89 % (6:00 am)35 % (1:00 pm)
Barometer29.81 in29.92 in (9:00 am)29.71 in (4:00 pm)
Wind Speed4.1 mph9.2 mph (7:00 pm)
Weather ElementAverage
Visibility5.8 mi
Wind DirectionESE (107.9 °)

Weather ElementTotal
Precipitation---
Cooling Degree Days22.8 (Base 65)
Growing Degree Days37.8 (Base 50)
Averaged from 19 records on April 1, 2013
WEATHER CONDITIONS BREAKOUT
WIND DIRECTION BREAKOUT
WEATHER BY HOUR - APRIL 1, 2013
[ °C ]   °F
Local TimeTemperatureDewpointHumidityBarometerVisibilityWind DirectionWind SpeedGust SpeedPrecipitationEventsConditions
4:00 AM78.8 °F73.4 °F83 %29.80 inEast (90°)4.6 mphClear
6:00 AM77.0 °F73.4 °F89 %29.83 in5.6 miNorth (10°)2.3 mph
7:00 AM79.0 °F71.0 °F70 %29.83 in5.0 miNNW (340°)2.3 mphMist
7:00 AM78.8 °F73.4 °F83 %29.86 in5.0 miNorth (360°)2.3 mph
8:00 AM82.4 °F73.4 °F74 %29.89 in5.0 miNorth (10°)4.6 mph
9:00 AM86.0 °F73.4 °F66 %29.92 in5.6 miVariable3.5 mph
10:00 AM87.8 °F73.4 °F62 %29.89 inVariable3.5 mphClear
11:00 AM89.6 °F73.4 °F59 %29.89 inVariable3.5 mphClear
12:00 PM93.2 °F75.2 °F56 %29.86 in6.2 miENE (70°)4.6 mphScattered Clouds
1:00 PM93.2 °F75.2 °F56 %29.83 in6.2 miVariable3.5 mphPartly Cloudy
1:00 PM95.0 °F70.0 °F35 %29.80 in6.0 miESE (120°)1.2 mphScattered Clouds
2:00 PM96.8 °F73.4 °F47 %29.77 in5.6 miSouth (170°)5.8 mphPartly Cloudy
3:00 PM98.6 °F73.4 °F44 %29.74 in5.6 miVariable3.5 mphPartly Cloudy
4:00 PM96.8 °F73.4 °F47 %29.71 in6.2 miVariable5.8 mphPartly Cloudy
5:00 PM96.8 °F73.4 °F47 %29.74 in6.2 miVariable3.5 mphPartly Cloudy
6:00 PM93.2 °F73.4 °F52 %29.74 in6.2 miEast (80°)3.5 mphMostly Cloudy
7:00 PM91.0 °F70.0 °F41 %29.75 in6.0 miWest (270°)4.6 mphOvercast
7:00 PM87.8 °F73.4 °F62 %29.74 in6.2 miWest (270°)9.2 mphMostly Cloudy
8:00 PM86.0 °F73.4 °F66 %29.80 in6.2 miWest (260°)6.9 mphMostly Cloudy
Hourly data recorded from VTUK, located miles away from Khon Kaen, Thailand







STORIES FROM OUR PARTNERS